STARLINK-36692, 67744

Orbit data source: Space-Track

STARLINK-36692, 67744 is a payload satellite owned by SpaceX/Seattle (US) in SSO that was launched on Wed, 11 Feb 2026 UTC via an FALCON 9 launch vehicle from the Air Force Western Test Range (AFWTR). Payload-class satellites include a variety of spacecraft equipped with specific instruments for various scientific and technological missions. These include communications satellites like Starlink; space stations such as the ISS; scientific satellites like the Hubble; Earth observation satellites from companies like Planet Labs, Umbra, and HawkEye 360; GPS; miniature CubeSats for education and research; and military/defense satellites.

Loading next visibility...
Identifier
67744, 2026-026Z
Orbit
SSO
Country
Flag of USUS
Related business
Manufacturer
SpaceX/Seattle
Mission
Operational Commercial Communications
Bus & Motor
STARLINK V2MO, Unknown motor
Mass
575 kg wet, ~530 kg dry
Launch date (UTC)
2026-02-11 (3 months ago)
Launch vehicle
FALCON 9
Launch site
Air Force Western Test Range (AFWTR)
Object type
Payload
Rocket body
Debris
Shape & HBR
Box + 2 Pan, 17.7 m
Radar Cross Section
36.964 m²

Expand to show TLE details & history
Last TLE update: 9 hours ago

TLE from 9 hours ago
0 STARLINK-36692
1 67744U 26026Z   26130.11519800  .00006210  00000-0  19457-3 0  9999
2 67744  97.2849 183.9137 0000923  93.6177 266.5171 15.33438809 13543
Epoch: 2026-05-10T02:45Z
TLE epoch observation values (Epoch: 2026-05-10T02:45:53.107Z)
Latitude
-0.00004°
Longitude
-85.48049°
Altitude
468.712 km
Speed
7.632 km/s
True Right ascension
12h 15m 39s
True Declination
0° 00' 00"
Sunlit
Object was in full shadow at epoch
Visualization orbit readout
Latitude
Unknown
Longitude
Unknown
Altitude
Unknown
Speed
Unknown
Apparent Right ascension
Unknown
Apparent Declination
Unknown
Sunlit
N/A
Visualization observer readout
Local Sidereal Time
19:48:28
Azimuth
Unknown
Elevation
Unknown
Doppler factor
Unknown
Orbital elements
Apogee altitude
463.136 km
Perigee altitude
461.873 km
Semi-major axis
6,840.641 km
Eccentricity
0.00009
Inclination
97.2849°
RAAN
183.9137°
Arg. of periapsis
93.6177°
True anomaly
266.50654°
Mean anomaly
266.5171°
Eccentric anomaly
266.51182°
Mean motion
3.83617 °/min
Orbital period
93.84 mins
BSTAR
0.00019457
Loading maneuver chart data...
Computing Atmospheric mass density...
Loading historical data...
Loading historical data...
Loading historical data...
Loading historical data...
Loading historical data...
Loading historical data...
Loading historical data...

Documentation

Showing up to 5 results
|